Location: Unspecified
(0.0000°N, 0.0000°E)
Time: 20:18:52
(UTC+02:00)

IUS-9 SRM-1 - Visible Passes

Search period start: 21 May 2018 00:00
Search period end: 31 May 2018 00:00
Orbit: 226 x 19377 km, 26.4° (Epoch: 20 May)

Date Brightness Start Highest point End Pass type
(mag) Time Alt. Az. Time Alt. Az. Time Alt. Az.
21 May 8.1 05:30:20 10° WNW 07:05:34 62° SW 10:10:20 10° ESE visible
21 May 6.6 22:14:25 10° NNE 22:16:14 10° NE 22:18:28 10° NE visible
22 May 7.8 04:07:45 10° WNW 05:03:42 79° SW 08:45:44 10° ESE visible
23 May 7.5 02:47:39 10° NW 03:18:34 84° NE 07:15:54 10° ESE visible
24 May 7.2 01:28:55 10° NW 01:47:38 65° NE 05:34:44 10° ESE visible
25 May 6.9 00:11:06 10° NNW 00:23:25 43° NE 03:15:17 10° ESE visible
25 May 8.3 06:20:37 10° W 10:10:48 51° S 10:57:40 10° ESE visible
25 May 6.6 22:54:14 10° N 23:01:57 23° NE 23:33:18 10° E visible
26 May 8.0 05:00:08 23° WNW 06:14:02 65° SW 09:34:38 10° ESE visible
27 May 7.7 03:32:03 10° WNW 04:15:33 80° SW 08:07:53 10° ESE visible
28 May 7.0 02:12:00 10° NW 02:36:23 83° NE 06:34:01 10° ESE visible
29 May 6.7 00:53:10 10° NW 01:20:26 54° E 04:42:54 10° ESE visible
29 May 7.9 07:14:14 10° W 11:18:14 52° S 11:42:23 10° ESE visible
29 May 6.7 23:35:12 10° NNW 23:45:28 39° NE 01:38:36 10° ESE visible
30 May 8.3 05:48:22 20° W 07:47:14 53° SW 10:20:31 10° ESE visible
30 May 6.4 22:18:29 10° N 22:24:27 18° NE 22:31:52 15° ENE visible
